Showing default

PICO-02A021, 60538

Orbit data source: Space-Track

PICO-02A021, 60538 is a payload satellite owned by Apogeo Space (IT) in SSO that was launched on Fri, 16 Aug 2024 UTC via an FALCON 9 launch vehicle from the Air Force Western Test Range (AFWTR). Payload-class satellites include a variety of spacecraft equipped with specific instruments for various scientific and technological missions. These include communications satellites like Starlink; space stations such as the ISS; scientific satellites like the Hubble; Earth observation satellites from companies like Planet Labs, Umbra, and HawkEye 360; GPS; miniature CubeSats for education and research; and military/defense satellites.

Loading next visibility...
Identifier
60538, 2024-149BY
Orbit
SSO
Country
Flag of ITIT
Related business
Manufacturer
Apogeo Space
Mission
Operational Commercial Communications
Bus & Motor
CUBESAT 0.3U, Unknown motor
Mass
0.5 kg wet, 0.5 kg dry
Launch date (UTC)
2024-08-16 (1 year ago)
Launch vehicle
FALCON 9
Launch site
Air Force Western Test Range (AFWTR)
Object type
Payload
Rocket body
Debris
Shape & HBR
Box, 0.1 m
Radar Cross Section
0.008 m², Small (<0.1 m²)

Expand to show TLE details & history
Last TLE update: 22 hours ago

TLE from 22 hours ago
0 PICO-02A021
1 60538U 24149BY  25353.18833056  .00003993  00000-0  31754-3 0  9991
2 60538  97.6970  68.7425 0004822 204.1759 155.9239 15.00985794 72717
Epoch: 2025-12-19T04:31Z
TLE epoch observation values (Epoch: 2025-12-19T04:31:11.760Z)
Latitude
-0.00005°
Longitude
-87.08956°
Altitude
569.968 km
Speed
7.574 km/s
True Right ascension
04h 34m 58s
True Declination
0° 00' 00"
Sunlit
Object was in full shadow at epoch
Visualization orbit readout
Latitude
Unknown
Longitude
Unknown
Altitude
Unknown
Speed
Unknown
Apparent Right ascension
Unknown
Apparent Declination
Unknown
Sunlit
N/A
Visualization observer readout
Local Sidereal Time
01:17:20
Azimuth
Unknown
Elevation
Unknown
Doppler factor
Unknown
Orbital elements
Apogee altitude
564.205 km
Perigee altitude
557.513 km
Semi-major axis
6,938.996 km
Eccentricity
0.00048
Inclination
97.697°
RAAN
68.7425°
Arg. of periapsis
204.1759°
True anomaly
155.94643°
Mean anomaly
155.9239°
Eccentric anomaly
155.93517°
Mean motion
3.7549 °/min
Orbital period
95.87 mins
BSTAR
0.00031754
Loading maneuver chart data...
Computing Atmospheric mass density...
Loading historical data...
Loading historical data...
Loading historical data...
Loading historical data...
Loading historical data...
Loading historical data...
Loading historical data...

Documentation

Showing up to 5 results
|